DW5247 Lemo FI current weather conditions

sailwx.info

Wind from 113 at 5 knots gusting 9

Air temperature 19.4° C
Dewpoint 13.4° C

Last reported at 2019-Jul-20 11:02 UTC.
Time now 2019-Jul-20 11:26 UTC

Location: N 62°41' E 029°49'.
View on Google Maps.

See reports from other nearby stations

  
Tides and Currents Weather Stations Pressure Air Temp Water Temp Dewpoint Dewpoint Depression Visibility Wind Speed Wind Dir Waves Ship Positions
date/time (UTC)wind fromknots sea level pressurealtimeterstation pressurevisibilityair tempwater tempwave heightnotes
2019-Jul-20 11:07 180 3 gusting 9 19.4
2019-Jul-20 11:02 113 5 gusting 9 19.4
2019-Jul-20 10:57 023 4 gusting 6 19.4
2019-Jul-20 10:52 338 5 gusting 6 19.4
2019-Jul-20 10:47 068 4 gusting 7 19.4
2019-Jul-20 10:42 068 4 gusting 7 20.0
2019-Jul-20 10:37 113 3 gusting 6 19.4
2019-Jul-20 10:32 113 3 gusting 6 19.4
2019-Jul-20 10:27 113 3 gusting 6 19.4
2019-Jul-20 10:22 113 3 gusting 7 19.4
2019-Jul-20 10:17 158 3 gusting 7 19.4
2019-Jul-20 10:12 180 4 gusting 7 18.9
2019-Jul-20 10:07 068 3 gusting 7 18.9
2019-Jul-20 10:02 113 3 gusting 7 18.9
2019-Jul-20 09:57 090 3 gusting 7 18.9
2019-Jul-20 09:52 113 3 gusting 6 18.9
2019-Jul-20 09:47 18.9
2019-Jul-20 09:42 135 4 gusting 7 18.9
2019-Jul-20 09:37 158 3 gusting 7 18.9
2019-Jul-20 09:32 315 3 gusting 8 18.9
2019-Jul-20 09:27 18.9
2019-Jul-20 09:22 113 3 gusting 7 18.9
2019-Jul-20 09:17 068 3 gusting 7 18.3
2019-Jul-20 09:12 225 4 gusting 7 18.9
2019-Jul-20 09:07 225 4 gusting 6 18.9
2019-Jul-20 09:02 225 3 gusting 6 18.9
2019-Jul-20 08:57 158 3 gusting 6 18.3
2019-Jul-20 08:52 180 3 gusting 6 18.3
2019-Jul-20 08:47 158 3 gusting 6 18.3
2019-Jul-20 08:42 135 3 gusting 6 18.3
2019-Jul-20 08:37 090 3 gusting 6 17.8
2019-Jul-20 08:32 315 4 gusting 6 17.8
2019-Jul-20 08:27 135 3 gusting 8 17.8
2019-Jul-20 08:22 180 3 gusting 8 17.8
2019-Jul-20 08:17 135 4 gusting 8 17.2
2019-Jul-20 08:12 135 4 gusting 7 17.2
2019-Jul-20 08:07 158 3 gusting 7 17.2
2019-Jul-20 08:02 135 3 gusting 9 16.7
2019-Jul-20 07:57 248 4 gusting 9 16.7
2019-Jul-20 07:52 135 5 gusting 9 16.7
2019-Jul-20 07:47 113 4 gusting 8 16.7
2019-Jul-20 07:42 068 4 gusting 7 16.7
2019-Jul-20 07:37 135 3 gusting 6 16.7
2019-Jul-20 07:32 135 3 gusting 6 16.1
2019-Jul-20 07:27 068 4 gusting 6 16.1
2019-Jul-20 07:22 158 3 gusting 6 16.1
2019-Jul-20 07:17 113 3 gusting 6 16.1
2019-Jul-20 07:12 113 3 gusting 6 16.1
2019-Jul-20 07:07 113 3 gusting 6 16.1
2019-Jul-20 07:02 068 3 gusting 8 16.1
2019-Jul-20 06:57 113 2 gusting 8 16.1
2019-Jul-20 06:52 068 3 gusting 8 16.1
2019-Jul-20 06:47 225 3 gusting 8 16.1
2019-Jul-20 06:42 113 3 gusting 8 15.6
2019-Jul-20 06:37 113 3 gusting 6 15.6
2019-Jul-20 06:32 113 3 gusting 6 15.6
2019-Jul-20 06:27 113 3 gusting 9 15.6
2019-Jul-20 06:22 113 3 gusting 9 15.6
2019-Jul-20 06:17 090 4 gusting 9 15.6
2019-Jul-20 06:12 158 3 gusting 5 15.6
2019-Jul-20 06:07 045 3 gusting 6 15.6
2019-Jul-20 06:02 135 2 gusting 6 15.6
2019-Jul-20 05:57 158 2 gusting 6 15.6
2019-Jul-20 05:52 135 2 gusting 3 15.6
2019-Jul-20 05:47 113 1 gusting 3 15.0
2019-Jul-20 05:42 113 1 gusting 4 15.0
2019-Jul-20 05:37 338 1 gusting 5 15.0
2019-Jul-20 05:32 068 2 gusting 6 15.0
2019-Jul-20 05:27 135 2 gusting 6 15.0
2019-Jul-20 05:22 135 1 gusting 4 15.0
2019-Jul-20 05:17 135 1 gusting 4 15.0
2019-Jul-20 05:12 135 1 gusting 4 15.0
2019-Jul-20 05:07 135 1 gusting 3 15.0
2019-Jul-20 05:02 135 1 gusting 4 15.0
2019-Jul-20 04:57 135 2 gusting 5 15.0
2019-Jul-20 04:52 180 2 gusting 5 14.4
2019-Jul-20 04:47 135 2 gusting 4 14.4
2019-Jul-20 04:42 135 2 gusting 4 14.4
2019-Jul-20 04:37 090 2 gusting 5 14.4
2019-Jul-20 04:32 113 2 gusting 5 14.4
2019-Jul-20 04:27 113 2 gusting 3 14.4
2019-Jul-20 04:22 135 2 gusting 8 14.4
2019-Jul-20 04:17 090 2 gusting 8 14.4
2019-Jul-20 04:12 113 3 gusting 8 14.4
2019-Jul-20 04:07 113 3 gusting 8 14.4
2019-Jul-20 04:02 135 3 gusting 6 14.4
2019-Jul-20 03:57 135 3 gusting 6 14.4
2019-Jul-20 03:52 135 2 gusting 5 14.4
2019-Jul-20 03:47 135 2 gusting 5 14.4
2019-Jul-20 03:42 113 2 gusting 6 14.4
2019-Jul-20 03:37 135 2 gusting 6 14.4
2019-Jul-20 03:32 113 2 gusting 6 14.4
2019-Jul-20 03:27 113 2 gusting 6 14.4
2019-Jul-20 03:22 113 2 gusting 6 14.4
2019-Jul-20 03:17 158 2 gusting 4 14.4
2019-Jul-20 03:12 113 1 gusting 4 14.4
2019-Jul-20 03:02 113 1 gusting 3 14.4
2019-Jul-20 02:57 113 1 gusting 3 14.4
2019-Jul-20 02:52 158 1 gusting 3 14.4
2019-Jul-20 02:47 113 2 gusting 3 14.4
2019-Jul-20 02:42 068 1 gusting 3 14.4
2019-Jul-20 02:37 113 0 gusting 3 14.4
2019-Jul-20 02:32 068 1 gusting 3 14.4
2019-Jul-20 02:27 158 1 gusting 4 14.4
2019-Jul-20 02:22 135 1 gusting 5 14.4
2019-Jul-20 02:17 135 2 gusting 5 14.4
2019-Jul-20 02:12 158 2 gusting 5 14.4
2019-Jul-20 02:07 135 2 gusting 5 14.4
2019-Jul-20 02:02 113 1 gusting 4 14.4
2019-Jul-20 01:57 135 1 gusting 2 14.4
2019-Jul-20 01:52 158 1 gusting 6 14.4
2019-Jul-20 01:47 203 1 gusting 6 14.4
2019-Jul-20 01:42 158 2 gusting 9 14.4
2019-Jul-20 01:37 135 3 gusting 9 14.4
2019-Jul-20 01:32 113 3 gusting 9 14.4
2019-Jul-20 01:27 090 3 gusting 5 14.4
2019-Jul-20 01:22 315 2 gusting 4 14.4
2019-Jul-20 01:17 135 2 gusting 4 14.4
2019-Jul-20 01:12 180 2 gusting 6 14.4
2019-Jul-20 01:07 158 2 gusting 6 14.4
2019-Jul-20 01:02 180 2 gusting 6 14.4
2019-Jul-20 00:57 180 3 gusting 7 14.4
2019-Jul-20 00:52 135 3 gusting 7 14.4
2019-Jul-20 00:47 180 2 gusting 7 14.4
2019-Jul-20 00:42 135 2 gusting 6 14.4
2019-Jul-20 00:37 158 3 gusting 6 14.4
2019-Jul-20 00:32 113 3 gusting 6 14.4
2019-Jul-20 00:27 135 3 gusting 6 14.4
2019-Jul-20 00:22 113 3 gusting 6 14.4
2019-Jul-20 00:17 068 3 gusting 8 14.4
2019-Jul-20 00:12 135 3 gusting 8 14.4
2019-Jul-20 00:07 135 3 gusting 8 14.4
2019-Jul-20 00:02 135 3 gusting 6 14.4
2019-Jul-19 23:57 135 3 gusting 6 14.4
2019-Jul-19 23:52 158 3 gusting 6 14.4
2019-Jul-19 23:47 113 3 gusting 6 14.4
2019-Jul-19 23:42 113 3 gusting 7 14.4
2019-Jul-19 23:37 158 4 gusting 7 14.4
2019-Jul-19 23:32 135 4 gusting 7 14.4
2019-Jul-19 23:27 135 3 gusting 7 14.4
2019-Jul-19 23:22 113 3 gusting 7 14.4
2019-Jul-19 23:17 135 3 gusting 9 14.4
2019-Jul-19 23:12 113 3 gusting 9 14.4
2019-Jul-19 23:07 180 3 gusting 9 15.0
2019-Jul-19 23:02 180 3 gusting 7 15.0
2019-Jul-19 22:57 113 4 gusting 6 15.0
2019-Jul-19 22:52 135 3 gusting 7 15.0
2019-Jul-19 22:47 135 3 gusting 7 15.0
2019-Jul-19 22:42 045 3 gusting 7 15.0
2019-Jul-19 22:37 158 3 gusting 10 15.0
2019-Jul-19 22:32 113 2 gusting 10 15.0
2019-Jul-19 22:27 135 2 gusting 10 15.0
2019-Jul-19 22:22 135 2 gusting 4 15.0
2019-Jul-19 22:17 113 2 gusting 6 15.0
2019-Jul-19 22:12 068 1 gusting 6 15.0
2019-Jul-19 22:07 113 2 gusting 6 15.0
2019-Jul-19 22:02 158 1 gusting 4 15.0
2019-Jul-19 21:57 135 0 gusting 3 15.0
2019-Jul-19 21:52 135 0 gusting 5 15.0
2019-Jul-19 21:47 135 1 gusting 5 15.0
2019-Jul-19 21:42 293 1 gusting 5 15.0
2019-Jul-19 21:37 135 1 gusting 9 15.0
2019-Jul-19 21:32 135 2 gusting 9 15.0
2019-Jul-19 21:27 135 3 gusting 5 15.0
2019-Jul-19 21:22 113 2 gusting 5 15.0
2019-Jul-19 21:17 135 2 gusting 3 15.0
2019-Jul-19 21:12 090 2 gusting 4 15.0
2019-Jul-19 21:07 090 2 gusting 8 15.0
2019-Jul-19 20:57 135 2 gusting 8 15.0
2019-Jul-19 20:52 135 2 gusting 6 15.0
2019-Jul-19 20:47 158 2 gusting 6 15.0
2019-Jul-19 20:42 068 3 gusting 7 15.0
2019-Jul-19 20:37 090 2 gusting 7 15.0
2019-Jul-19 20:32 135 2 gusting 7 15.0
2019-Jul-19 20:27 225 2 gusting 6 15.0
2019-Jul-19 20:22 113 2 gusting 6 15.0
2019-Jul-19 20:17 113 2 gusting 6 15.0
2019-Jul-19 20:12 135 2 gusting 4 15.0
2019-Jul-19 20:07 135 2 gusting 4 15.0
2019-Jul-19 20:02 113 1 gusting 3 15.0
2019-Jul-19 19:57 113 1 gusting 3 15.0
2019-Jul-19 19:52 135 1 gusting 6 15.0
2019-Jul-19 19:47 158 1 gusting 6 15.0
2019-Jul-19 19:42 158 1 gusting 6 15.0
2019-Jul-19 19:37 113 2 gusting 3 15.0
2019-Jul-19 19:32 135 1 gusting 6 15.0
2019-Jul-19 19:27 135 2 gusting 6 14.4
2019-Jul-19 19:22 113 2 gusting 6 14.4
2019-Jul-19 19:17 135 1 gusting 5 14.4
2019-Jul-19 19:12 113 2 gusting 5 14.4
2019-Jul-19 19:07 158 2 gusting 3 14.4
2019-Jul-19 19:02 135 1 gusting 3 14.4
2019-Jul-19 18:57 068 2 gusting 6 14.4
2019-Jul-19 18:52 135 2 gusting 6 14.4
2019-Jul-19 18:47 135 1 gusting 6 14.4
2019-Jul-19 18:42 135 2 gusting 3 14.4
2019-Jul-19 18:37 113 2 gusting 6 14.4
2019-Jul-19 18:32 135 2 gusting 6 14.4
2019-Jul-19 18:27 135 2 gusting 6 14.4
2019-Jul-19 18:22 158 2 gusting 6 14.4
2019-Jul-19 18:17 113 2 gusting 6 14.4
2019-Jul-19 18:12 090 2 gusting 6 14.4
2019-Jul-19 18:07 135 1 gusting 4 14.4
2019-Jul-19 18:02 113 1 gusting 4 14.4
2019-Jul-19 17:57 068 1 gusting 3 14.4
2019-Jul-19 17:52 158 1 gusting 6 14.4
2019-Jul-19 17:47 090 2 gusting 6 14.4
2019-Jul-19 17:42 090 2 gusting 6 14.4
2019-Jul-19 17:37 135 3 gusting 6 14.4
2019-Jul-19 17:32 135 2 gusting 5 14.4
2019-Jul-19 17:27 068 2 gusting 3 14.4
2019-Jul-19 17:22 135 2 gusting 4 14.4
2019-Jul-19 17:17 113 1 gusting 4 14.4
2019-Jul-19 17:12 135 2 gusting 4 14.4
2019-Jul-19 17:07 113 2 gusting 5 14.4
2019-Jul-19 17:02 068 1 gusting 5 14.4
2019-Jul-19 16:57 113 1 gusting 5 14.4
2019-Jul-19 16:52 135 1 gusting 4 14.4
2019-Jul-19 16:47 135 2 gusting 4 14.4
2019-Jul-19 16:42 113 2 gusting 5 14.4
2019-Jul-19 16:37 135 2 gusting 5 14.4
2019-Jul-19 16:32 068 1 gusting 5 15.0
2019-Jul-19 16:27 135 3 gusting 5 15.0
2019-Jul-19 16:22 135 3 gusting 5 15.0
2019-Jul-19 16:17 135 3 gusting 4 15.0
2019-Jul-19 16:12 180 2 gusting 5 15.0
2019-Jul-19 16:07 135 2 gusting 7 15.0
2019-Jul-19 16:02 135 3 gusting 7 15.0
2019-Jul-19 15:57 090 3 gusting 7 15.0
2019-Jul-19 15:52 158 3 gusting 6 15.0
2019-Jul-19 15:47 135 3 gusting 6 15.6
2019-Jul-19 15:42 158 3 gusting 6 15.6
2019-Jul-19 15:37 248 3 gusting 6 15.6
2019-Jul-19 15:32 180 3 gusting 6 15.6
2019-Jul-19 15:27 180 3 gusting 6 15.6
2019-Jul-19 15:22 113 2 gusting 6 15.6
2019-Jul-19 15:17 180 2 gusting 6 15.6
2019-Jul-19 15:12 158 1 gusting 5 15.6
2019-Jul-19 15:07 180 2 gusting 5 15.6
2019-Jul-19 15:02 113 3 gusting 5 15.6
2019-Jul-19 14:57 135 2 gusting 5 15.6
2019-Jul-19 14:52 090 2 gusting 6 15.6
2019-Jul-19 14:47 180 2 gusting 6 16.1
2019-Jul-19 14:42 338 2 gusting 6 16.1
2019-Jul-19 14:37 113 3 gusting 4 16.1
2019-Jul-19 14:32 135 2 gusting 4 16.1
2019-Jul-19 14:27 135 2 gusting 4 16.1
2019-Jul-19 14:22 180 1 gusting 3 16.1
2019-Jul-19 14:17 113 1 gusting 3 16.1
2019-Jul-19 14:12 135 1 gusting 3 16.1
2019-Jul-19 14:07 113 1 gusting 5 16.1
2019-Jul-19 14:02 135 2 gusting 8 16.1
2019-Jul-19 13:57 135 3 gusting 8 16.1
2019-Jul-19 13:52 135 3 gusting 8 16.7
2019-Jul-19 13:47 180 4 gusting 7 16.7
2019-Jul-19 13:42 090 3 gusting 7 16.7
2019-Jul-19 13:37 293 2 gusting 5 16.7
2019-Jul-19 13:32 225 2 gusting 4 16.7
2019-Jul-19 13:27 180 1 gusting 4 16.7
2019-Jul-19 13:22 180 2 gusting 3 16.7
2019-Jul-19 13:17 113 1 gusting 3 16.7
2019-Jul-19 13:12 248 1 gusting 4 16.7
2019-Jul-19 13:07 158 1 gusting 4 16.7
2019-Jul-19 13:02 158 2 gusting 4 16.7
2019-Jul-19 12:57 180 3 gusting 6 16.7
2019-Jul-19 12:52 203 3 gusting 6 16.7
2019-Jul-19 12:47 248 2 gusting 6 16.7
2019-Jul-19 12:42 135 2 gusting 6 16.7
2019-Jul-19 12:37 180 2 gusting 5 16.7
2019-Jul-19 12:32 158 1 gusting 5 16.7
2019-Jul-19 12:27 113 2 gusting 4 16.7
2019-Jul-19 12:22 135 2 gusting 6 16.1
2019-Jul-19 12:17 135 2 gusting 6 16.1
2019-Jul-19 12:12 248 2 gusting 3 16.1
2019-Jul-19 12:07 068 3 gusting 6 16.1
2019-Jul-19 12:02 068 3 gusting 6 16.1
2019-Jul-19 11:57 113 3 gusting 6 16.1
2019-Jul-19 11:52 135 3 gusting 6 16.1
2019-Jul-19 11:47 045 3 gusting 5 16.1
2019-Jul-19 11:42 135 3 gusting 5 16.1
2019-Jul-19 11:37 158 3 gusting 6 16.1
2019-Jul-19 11:32 113 3 gusting 6 16.1
2019-Jul-19 11:27 135 3 gusting 6 16.1
2019-Jul-19 11:22 135 2 gusting 8 16.1
2019-Jul-19 11:17 158 3 gusting 8 16.1
2019-Jul-19 11:12 338 3 gusting 6 16.1
2019-Jul-19 11:07 135 3 gusting 6 16.1
2019-Jul-19 11:02 113 3 gusting 6 15.6
2019-Jul-19 10:57 135 3 gusting 5 15.6
2019-Jul-19 10:52 068 3 gusting 7 15.6
2019-Jul-19 10:47 113 3 gusting 7 15.6
2019-Jul-19 10:42 090 3 gusting 7 15.6
2019-Jul-19 10:37 045 3 gusting 6 15.6
2019-Jul-19 10:32 158 2 gusting 4 15.6
2019-Jul-19 10:27 158 2 gusting 6 15.6
2019-Jul-19 10:22 090 3 gusting 6 15.6
2019-Jul-19 10:17 135 2 gusting 6 15.6
2019-Jul-19 10:12 113 2 gusting 7 15.6
2019-Jul-19 10:07 113 2 gusting 7 15.6
2019-Jul-19 10:02 180 2 gusting 4 15.6
2019-Jul-19 09:57 113 2 gusting 6 15.6
2019-Jul-19 09:52 135 2 gusting 6 15.6
2019-Jul-19 09:47 158 2 gusting 6 15.6
2019-Jul-19 09:42 158 1 gusting 6 15.6
2019-Jul-19 09:37 135 1 gusting 6 15.6
2019-Jul-19 09:32 158 2 gusting 6 15.6
2019-Jul-19 09:27 113 2 gusting 4 15.6
2019-Jul-19 09:22 090 2 gusting 4 15.6
2019-Jul-19 09:17 158 2 gusting 4 15.6
2019-Jul-19 09:12 135 3 gusting 7 15.6
2019-Jul-19 09:07 135 3 gusting 7 15.6
2019-Jul-19 09:02 158 3 gusting 6 15.6
2019-Jul-19 08:57 158 2 gusting 4 16.1
2019-Jul-19 08:52 225 2 gusting 8 16.1
2019-Jul-19 08:47 158 3 gusting 8 16.1
2019-Jul-19 08:42 225 3 gusting 8 16.1
2019-Jul-19 08:37 180 3 gusting 7 16.1
2019-Jul-19 08:32 135 3 gusting 7 16.1
2019-Jul-19 08:27 158 3 gusting 5 16.1
2019-Jul-19 08:22 113 2 gusting 4 16.1
2019-Jul-19 08:17 135 1 gusting 3 16.1
2019-Jul-19 08:12 180 1 gusting 3 16.1
2019-Jul-19 08:07 158 1 gusting 7 16.1
2019-Jul-19 08:02 113 2 gusting 7 16.1
2019-Jul-19 07:57 180 1 gusting 7 16.1
2019-Jul-19 07:52 135 1 gusting 6 16.1
2019-Jul-19 07:47 180 2 gusting 6 16.1
2019-Jul-19 07:42 180 2 gusting 5 16.1
2019-Jul-19 07:37 158 2 gusting 4 16.1
2019-Jul-19 07:32 135 2 gusting 7 16.1
2019-Jul-19 07:27 248 2 gusting 7 16.1
2019-Jul-19 07:22 158 2 gusting 7 15.6
2019-Jul-19 07:17 135 3 gusting 6 15.6
2019-Jul-19 07:12 135 2 gusting 6 15.6
2019-Jul-19 07:07 180 2 gusting 6 15.6
2019-Jul-19 07:02 158 2 gusting 6 15.6
2019-Jul-19 06:57 135 2 gusting 5 15.6
2019-Jul-19 06:52 113 1 gusting 6 15.6
2019-Jul-19 06:47 068 2 gusting 6 15.0
2019-Jul-19 06:42 135 2 gusting 6 15.0
2019-Jul-19 06:37 135 2 gusting 4 15.6
2019-Jul-19 06:32 113 2 gusting 5 15.0
2019-Jul-19 06:27 135 2 gusting 5 15.0
2019-Jul-19 06:22 113 2 gusting 6 15.0
2019-Jul-19 06:17 180 2 gusting 6 15.0
2019-Jul-19 06:12 135 2 gusting 5 15.0
2019-Jul-19 06:07 113 2 gusting 5 15.0
2019-Jul-19 06:02 135 2 gusting 6 15.0
2019-Jul-19 05:57 158 2 gusting 6 15.0
2019-Jul-19 05:52 135 2 gusting 6 15.0
2019-Jul-19 05:47 135 2 gusting 5 15.0
2019-Jul-19 05:42 135 2 gusting 5 15.0
2019-Jul-19 05:37 113 2 gusting 5 15.0
2019-Jul-19 05:32 113 2 gusting 5 15.0
2019-Jul-19 05:27 068 2 gusting 6 15.0
2019-Jul-19 05:22 158 2 gusting 6 15.0
2019-Jul-19 05:17 113 1 gusting 6 15.0
2019-Jul-19 05:12 293 1 gusting 3 15.0
2019-Jul-19 05:07 203 0 gusting 6 15.0
2019-Jul-19 05:02 158 1 gusting 7 15.0
2019-Jul-19 04:57 158 3 gusting 7 15.0
2019-Jul-19 04:52 180 3 gusting 7 15.0
2019-Jul-19 04:47 135 2 gusting 3 15.0
2019-Jul-19 04:42 090 1 gusting 3 15.0
2019-Jul-19 04:37 135 1 gusting 3 15.0
2019-Jul-19 04:32 113 1 gusting 2 15.0
2019-Jul-19 04:27 180 1 gusting 2 15.0
2019-Jul-19 04:22 270 1 gusting 2 15.0
2019-Jul-19 04:17 158 0 gusting 2 15.0
2019-Jul-19 04:12 135 0 gusting 3 15.0
2019-Jul-19 04:07 068 1 gusting 3 15.0
2019-Jul-19 04:02 135 1 gusting 3 15.0
2019-Jul-19 03:57 113 1 gusting 4 15.0
2019-Jul-19 03:52 180 1 gusting 4 15.0
2019-Jul-19 03:47 135 2 gusting 4 15.0
2019-Jul-19 03:42 158 1 gusting 3 15.0
2019-Jul-19 03:37 135 1 gusting 5 15.0
2019-Jul-19 03:32 113 1 gusting 5 15.0
2019-Jul-19 03:27 113 1 gusting 5 15.0
2019-Jul-19 03:22 158 1 gusting 2 15.0
2019-Jul-19 03:17 113 1 gusting 1 15.0
2019-Jul-19 03:12 135 1 gusting 3 15.0
2019-Jul-19 03:07 135 1 gusting 3 15.0
2019-Jul-19 03:02 135 1 gusting 3 15.0
2019-Jul-19 02:57 135 1 gusting 3 15.0
2019-Jul-19 02:52 15.0
2019-Jul-19 02:47 225 0 gusting 3 15.0
2019-Jul-19 02:42 158 1 gusting 5 15.0
2019-Jul-19 02:37 113 1 gusting 5 15.0
2019-Jul-19 02:32 135 1 gusting 5 15.0
2019-Jul-19 02:27 135 1 gusting 2 15.0
2019-Jul-19 02:22 180 1 gusting 8 15.0
2019-Jul-19 02:17 225 2 gusting 8 15.0
2019-Jul-19 02:12 158 1 gusting 8 15.0
2019-Jul-19 02:07 135 1 gusting 6 15.0
2019-Jul-19 02:02 113 1 gusting 3 15.0
2019-Jul-19 01:57 135 1 gusting 4 15.0
2019-Jul-19 01:52 113 1 gusting 4 15.0
2019-Jul-19 01:47 113 1 gusting 4 15.0
2019-Jul-19 01:42 158 0 gusting 6 15.0
2019-Jul-19 01:37 135 0 gusting 6 15.0
2019-Jul-19 01:32 135 1 gusting 6 15.0
2019-Jul-19 01:27 225 0 gusting 3 15.0
2019-Jul-19 01:22 203 0 gusting 2 15.0
2019-Jul-19 01:17 158 0 gusting 3 15.0
2019-Jul-19 01:12 158 1 gusting 3 15.0
2019-Jul-19 01:07 113 1 gusting 2 15.0
2019-Jul-19 01:02 135 0 gusting 2 15.0
2019-Jul-19 00:57 158 0 gusting 2 15.0
2019-Jul-19 00:52 135 0 gusting 2 15.0
2019-Jul-19 00:47 203 0 gusting 2 15.0
2019-Jul-19 00:42 180 0 gusting 2 15.0
2019-Jul-19 00:37 158 0 gusting 2 15.0
2019-Jul-19 00:32 180 0 gusting 1 15.0
2019-Jul-19 00:27 180 0 gusting 1 15.0
2019-Jul-19 00:22 225 15.6
2019-Jul-19 00:17 203 0 gusting 1 15.6
2019-Jul-19 00:12 180 1 gusting 1 15.6
2019-Jul-19 00:07 180 1 gusting 2 15.6
2019-Jul-19 00:02 180 1 gusting 2 15.6
2019-Jul-18 23:57 180 0 gusting 4 15.6
2019-Jul-18 23:52 225 0 gusting 4 15.6
2019-Jul-18 23:47 113 1 gusting 1 15.6
2019-Jul-18 23:42 203 1 gusting 1 15.6
2019-Jul-18 23:37 225 0 gusting 1 15.6
2019-Jul-18 23:32 180 0 gusting 3 15.6
2019-Jul-18 23:27 158 0 gusting 3 15.6
2019-Jul-18 23:22 180 0 gusting 3 15.6
2019-Jul-18 23:17 248 0 gusting 2 15.6
2019-Jul-18 23:12 180 0 gusting 2 15.6
2019-Jul-18 23:07 158 0 gusting 2 15.6
2019-Jul-18 23:02 180 0 gusting 2 15.6
2019-Jul-18 22:57 135 0 gusting 1 15.6
2019-Jul-18 22:52 158 0 gusting 2 15.6
2019-Jul-18 22:47 203 15.6
2019-Jul-18 22:42 135 15.6
2019-Jul-18 22:37 135 15.6
2019-Jul-18 22:32 180 0 gusting 2 15.6
2019-Jul-18 22:27 135 0 gusting 3 15.6
2019-Jul-18 22:22 180 1 gusting 3 15.6
2019-Jul-18 22:17 135 0 gusting 3 15.6
2019-Jul-18 22:12 158 1 gusting 5 15.6
2019-Jul-18 22:07 158 1 gusting 5 15.6
2019-Jul-18 22:02 180 1 gusting 2 15.6
2019-Jul-18 21:57 158 0 gusting 3 15.6
2019-Jul-18 21:52 180 0 gusting 3 15.6
2019-Jul-18 21:47 135 1 gusting 3 15.6
2019-Jul-18 21:42 158 1 gusting 2 15.6
2019-Jul-18 21:37 158 1 gusting 2 15.6
2019-Jul-18 21:32 203 1 gusting 6 15.6
2019-Jul-18 21:27 158 1 gusting 6 15.6
2019-Jul-18 21:22 180 1 gusting 3 15.6
2019-Jul-18 21:17 135 1 gusting 2 15.6
2019-Jul-18 21:12 180 1 gusting 1 15.6
2019-Jul-18 21:07 135 0 gusting 1 15.6
2019-Jul-18 20:57 135 0 gusting 2 15.6
2019-Jul-18 20:52 180 0 gusting 2 15.6
2019-Jul-18 20:47 180 15.6
2019-Jul-18 20:42 180 15.6
2019-Jul-18 20:37 135 16.1
2019-Jul-18 20:32 135 0 gusting 1 16.1
2019-Jul-18 20:27 180 16.1
2019-Jul-18 20:22 135 16.1
2019-Jul-18 20:17 135 16.1
2019-Jul-18 20:12 158 0 gusting 2 16.1
2019-Jul-18 20:07 135 0 gusting 2 16.1
2019-Jul-18 20:02 180 16.1
2019-Jul-18 19:57 135 16.1
2019-Jul-18 19:52 158 16.1
2019-Jul-18 19:47 158 0 gusting 3 16.1
2019-Jul-18 19:42 158 1 gusting 4 16.1
2019-Jul-18 19:37 158 1 gusting 6 16.1
2019-Jul-18 19:32 023 1 gusting 6 16.7
2019-Jul-18 19:27 180 2 gusting 6 16.7
2019-Jul-18 19:22 225 2 gusting 4 16.7
2019-Jul-18 19:17 248 2 gusting 4 16.7
2019-Jul-18 19:12 225 2 gusting 6 16.7
2019-Jul-18 19:07 180 2 gusting 6 16.7
2019-Jul-18 19:02 158 1 gusting 6 16.7
2019-Jul-18 18:57 203 2 gusting 3 17.2
2019-Jul-18 18:52 135 1 gusting 3 17.2
2019-Jul-18 18:47 248 0 gusting 2 17.2
2019-Jul-18 18:42 225 0 gusting 3 17.2
2019-Jul-18 18:37 225 0 gusting 4 17.2
2019-Jul-18 18:32 180 1 gusting 4 17.2
2019-Jul-18 18:27 225 2 gusting 4 17.2
2019-Jul-18 18:22 248 1 gusting 4 17.8
2019-Jul-18 18:17 180 1 gusting 4 17.2
2019-Jul-18 18:12 135 1 gusting 5 17.8
2019-Jul-18 18:07 225 1 gusting 5 17.8
2019-Jul-18 18:02 180 2 gusting 5 17.8
2019-Jul-18 17:57 180 2 gusting 1 17.8
2019-Jul-18 17:52 158 1 gusting 3 17.8
2019-Jul-18 17:47 135 1 gusting 6 17.8
2019-Jul-18 17:42 158 1 gusting 6 17.8
2019-Jul-18 17:37 180 2 gusting 6 17.8
2019-Jul-18 17:32 225 3 gusting 6 17.8
2019-Jul-18 17:27 203 2 gusting 6 17.8
2019-Jul-18 17:22 248 2 gusting 6 17.8
2019-Jul-18 17:17 270 2 gusting 6 17.8
2019-Jul-18 17:12 180 3 gusting 6 17.8
2019-Jul-18 17:07 158 3 gusting 5 18.3
2019-Jul-18 17:02 180 3 gusting 6 18.3
2019-Jul-18 16:57 180 3 gusting 6 18.3
2019-Jul-18 16:52 248 3 gusting 6 18.3
2019-Jul-18 16:47 203 3 gusting 6 18.3
2019-Jul-18 16:42 180 3 gusting 5 18.3
2019-Jul-18 16:37 180 2 gusting 4 18.3
2019-Jul-18 16:32 135 2 gusting 4 18.3
2019-Jul-18 16:27 225 2 gusting 4 18.3
2019-Jul-18 16:22 248 2 gusting 7 18.3
2019-Jul-18 16:17 180 2 gusting 7 18.3
2019-Jul-18 16:12 225 3 gusting 7 18.9
2019-Jul-18 16:07 225 3 gusting 6 18.9
2019-Jul-18 16:02 180 3 gusting 7 18.9
2019-Jul-18 15:57 180 3 gusting 7 18.9
2019-Jul-18 15:52 135 4 gusting 5 18.9
2019-Jul-18 15:47 158 4 gusting 6 18.9
2019-Jul-18 15:42 203 3 gusting 6 18.9
2019-Jul-18 15:37 113 3 gusting 6 18.9
2019-Jul-18 15:32 248 3 gusting 6 18.9
2019-Jul-18 15:27 180 3 gusting 5 18.9
2019-Jul-18 15:22 225 3 gusting 6 19.4
2019-Jul-18 15:17 180 3 gusting 6 18.9
2019-Jul-18 15:12 180 2 gusting 6 18.9
2019-Jul-18 15:07 248 3 gusting 5 18.9
2019-Jul-18 15:02 135 3 gusting 5 18.9
2019-Jul-18 14:57 225 2 gusting 4 18.9
2019-Jul-18 14:52 225 2 gusting 5 18.9
2019-Jul-18 14:47 180 2 gusting 5 18.9
2019-Jul-18 14:42 135 2 gusting 5 18.9
2019-Jul-18 14:37 203 2 gusting 6 18.3
2019-Jul-18 14:32 158 3 gusting 6 18.9
2019-Jul-18 14:27 225 4 gusting 6 18.3
2019-Jul-18 14:22 180 3 gusting 6 18.3
2019-Jul-18 14:17 135 3 gusting 7 18.3
2019-Jul-18 14:12 180 4 gusting 7 18.3
2019-Jul-18 14:07 135 4 gusting 7 18.3
2019-Jul-18 14:02 203 3 gusting 7 18.3
2019-Jul-18 13:57 113 3 gusting 7 18.3
2019-Jul-18 13:52 158 3 gusting 7 18.3
2019-Jul-18 13:47 158 3 gusting 6 18.3
2019-Jul-18 13:42 248 2 gusting 6 18.3
2019-Jul-18 13:37 158 2 gusting 6 18.3
2019-Jul-18 13:32 158 3 gusting 6 18.3
2019-Jul-18 13:27 270 3 gusting 5 18.3
2019-Jul-18 13:22 158 2 gusting 5 18.3
2019-Jul-18 13:17 135 2 gusting 4 18.3
2019-Jul-18 13:12 180 2 gusting 5 18.3
2019-Jul-18 13:07 315 2 gusting 5 18.3
2019-Jul-18 13:02 135 2 gusting 5 17.8
2019-Jul-18 12:57 180 3 gusting 5 17.8
2019-Jul-18 12:52 135 2 gusting 5 17.8
2019-Jul-18 12:47 248 0 gusting 2 17.8
2019-Jul-18 12:42 203 1 gusting 4 17.8
2019-Jul-18 12:37 158 2 gusting 4 17.8
2019-Jul-18 12:32 158 2 gusting 4 18.3
2019-Jul-18 12:27 068 1 gusting 4 17.8
2019-Jul-18 12:22 113 1 gusting 4 18.3
2019-Jul-18 12:17 225 2 gusting 4 17.8
2019-Jul-18 12:12 203 2 gusting 4 17.8
2019-Jul-18 12:07 180 1 gusting 3 18.3
2019-Jul-18 12:02 248 1 gusting 4 17.8
2019-Jul-18 11:57 180 1 gusting 5 18.3
2019-Jul-18 11:52 248 2 gusting 5 17.8
2019-Jul-18 11:47 180 1 gusting 3 17.8
2019-Jul-18 11:42 135 1 gusting 5 17.8
2019-Jul-18 11:37 158 2 gusting 5 17.8
2019-Jul-18 11:32 270 3 gusting 6 17.8
2019-Jul-18 11:27 158 2 gusting 6 17.8
2019-Jul-18 11:22 158 3 gusting 6 17.8
2019-Jul-18 11:17 248 3 gusting 5 17.8
2019-Jul-18 11:12 225 2 gusting 5 17.8
2019-Jul-18 11:07 225 2 gusting 6 17.8
2019-Jul-18 11:02 248 3 gusting 6 17.8